[[{"header":{"parameterUnit":"m.s-1","parameterCategory":2,"la1":30.2992,"la2":30.254,"lo1":-89.0895,"lo2":-89.0443,"dy":0.0025,"dx":0.0025,"nx":19,"ny":19,"refTime":"2026-04-26T21:00:00:Z","depth":"0","parameterNumber":2,"parameterNumberName":"U-component_of_CURRENTS"},"data":[0,0,0,0.0913,0.0911,0.0828,0.0828,0.0819,0.0819,0,0,0,0,0,0,0,0,0,0,0,0.0945,0.0944,0.0914,0.0911,0.0828,0.0828,0.0819,0.0819,0,0,0,0,0,0,0,0,0,0,0,0.0945,0.0944,0.0944,0.0911,0.0828,0.0828,0.0819,0.0859,0,0,0,0,0,0,0,0,0,0,0.0928,0.0957,0.0945,0.0944,0.091,0.0828,0.0828,0.086,0.0856,0.0883,0,0.0863,0,0.0839,0.082,0.082,0,0,0,0.0917,0.096,0.092,0.0943,0.091,0.0829,0.0867,0.0857,0.0853,0.0879,0.0862,0.0861,0.0839,0.082,0.082,0.0817,0.0817,0,0,0.0921,0.0951,0.0922,0.0917,0.0881,0.087,0.0865,0.0854,0.0861,0.0862,0.086,0.0839,0.082,0.082,0.0817,0.0817,0,0,0,0.0931,0.0954,0.0912,0.0918,0.0894,0.0867,0.0861,0.0861,0.0841,0.086,0.0839,0.082,0.0821,0.0818,0.0817,0.0952,0,0,0,0.0934,0.0959,0.0915,0.0934,0.0894,0.0867,0.087,0.0842,0.084,0.0839,0.082,0.0821,0.0818,0.0817,0.0949,0.1051,0,0,0,0.095,0.0961,0.0944,0.0936,0.0894,0.0866,0.0846,0.0841,0.0827,0.082,0.0821,0.0818,0.0818,0.0946,0.1043,0.1226,0,0,0,0.0993,0.0973,0.0945,0.0916,0.0895,0.0829,0.0846,0.0809,0.0797,0.0821,0.0818,0.0817,0.0945,0.1039,0.1219,0.1243,0.1276,0,0,0.099,0.0974,0.0952,0.0924,0.0873,0.0841,0.0836,0.083,0.0806,0.083,0.0829,0.095,0.1043,0.1225,0.122,0.1255,0,0,0,0.0965,0.0952,0.0928,0.0894,0.084,0.0862,0.0819,0.0842,0.088,0.0796,0.0904,0.0958,0.1071,0.1067,0.1093,0.1061,0.0816,0.0816,0.0816,0.1042,0.0984,0.0958,0.0897,0.0874,0.0869,0.0923,0.0949,0.0892,0.0932,0.1033,0.1216,0.1205,0.1227,0.1191,0.0967,0.0968,0.0968,0.0968,0.1051,0.1046,0.0995,0.0952,0.0964,0.0975,0.105,0.1071,0.1236,0.1114,0.1217,0.1161,0.1265,0.1215,0.0976,0.0975,0.0974,0.0973,0.0972,0.1113,0.1109,0.1062,0.104,0.1086,0.1097,0.1276,0.1335,0.1382,0.1493,0.1527,0.1524,0.1522,0.1556,0.1558,0.1559,0.156,0.1561,0.1561,0.1221,0.1167,0.1187,0.1158,0.1199,0.1302,0.1448,0.1578,0.1714,0.171,0.171,0.1565,0.1397,0.1423,0.158,0.1577,0.1575,0.1573,0.1572,0.1299,0.1305,0.133,0.1361,0.1427,0.1509,0.1645,0.184,0.2002,0.2077,0.1914,0.1837,0.1826,0.18,0.1833,0.209,0.209,0.209,0.209,0.1402,0.1392,0.145,0.1506,0.159,0.1611,0.1779,0.1934,0.2071,0.2104,0.2109,0.1927,0.1907,0.1889,0.1862,0.189,0.2156,0.2156,0.2155,0.1474,0.1494,0.1542,0.1556,0.1624,0.1675,0.1726,0.1827,0.2031,0.2153,0.2075,0.2072,0.1788,0.176,0.1702,0.1666,0.1699,0,0]},{"header":{"parameterUnit":"m.s-1","parameterCategory":2,"la1":30.2992,"la2":30.254,"lo1":-89.0895,"lo2":-89.0443,"dy":0.0025,"dx":0.0025,"nx":19,"ny":19,"refTime":"2026-04-26T21:00:00:Z","depth":"0","parameterNumber":3,"parameterNumberName":"V-component_of_CURRENTS"},"data":[0,0,0,0.032,0.0321,0.034,0.034,0.0222,0.022,0,0,0,0,0,0,0,0,0,0,0,0.0303,0.0303,0.032,0.0321,0.034,0.034,0.0222,0.022,0,0,0,0,0,0,0,0,0,0,0,0.0303,0.0303,0.0304,0.0321,0.034,0.034,0.0222,0.0237,0,0,0,0,0,0,0,0,0,0,0.0234,0.0239,0.0303,0.0304,0.0321,0.034,0.034,0.0239,0.0236,0.0179,0,0.0196,0,0.0217,0.0211,0.0211,0,0,0,0.0297,0.0242,0.0262,0.0304,0.0322,0.034,0.0325,0.0239,0.0235,0.0175,0.0195,0.0192,0.0215,0.0211,0.021,0.0125,0.0125,0,0,0.0296,0.0284,0.0265,0.026,0.0342,0.0324,0.0326,0.0238,0.0227,0.0195,0.019,0.0213,0.021,0.0209,0.0125,0.0125,0,0,0,0.0309,0.0283,0.0308,0.0264,0.0285,0.0326,0.0327,0.0231,0.0245,0.0189,0.0212,0.0209,0.0207,0.0125,0.0125,0.0265,0,0,0,0.0307,0.0293,0.0307,0.0296,0.0289,0.0277,0.0322,0.025,0.0242,0.0212,0.0209,0.0206,0.0125,0.0125,0.0261,0.0373,0,0,0,0.0299,0.0291,0.0303,0.0296,0.0319,0.028,0.0287,0.0249,0.0256,0.0211,0.0206,0.0125,0.0125,0.0257,0.0364,0.0514,0,0,0,0.0272,0.0289,0.0302,0.0315,0.0319,0.0319,0.0288,0.0267,0.0232,0.0208,0.0125,0.0125,0.0256,0.0359,0.0507,0.0548,0.0583,0,0,0.028,0.0289,0.0297,0.031,0.0316,0.0314,0.0322,0.0268,0.0213,0.0139,0.0138,0.0262,0.0364,0.0512,0.0559,0.0594,0,0,0,0.029,0.0293,0.0294,0.0303,0.0308,0.0351,0.0294,0.0294,0.0272,0.0201,0.0227,0.0287,0.0377,0.0385,0.0412,0.0223,0.0126,0.0126,0.0126,0.0278,0.0286,0.0296,0.031,0.0324,0.0352,0.0401,0.0387,0.0292,0.0315,0.0372,0.0546,0.055,0.0572,0.0374,0.0311,0.0312,0.0312,0.0312,0.0288,0.0323,0.032,0.0337,0.039,0.0414,0.0497,0.05,0.0596,0.0467,0.0548,0.0495,0.0611,0.0388,0.0321,0.0319,0.0318,0.0317,0.0317,0.03,0.0335,0.0321,0.0379,0.0469,0.0532,0.0761,0.0784,0.0751,0.0841,0.0859,0.0855,0.0692,0.088,0.0881,0.0882,0.0883,0.0884,0.0885,0.0366,0.0358,0.0427,0.0471,0.0564,0.0754,0.0954,0.1076,0.1132,0.1055,0.1054,0.0719,0.0721,0.0736,0.0902,0.0899,0.0897,0.0895,0.0894,0.047,0.0477,0.0583,0.0663,0.0888,0.112,0.1271,0.1465,0.1537,0.1553,0.1055,0.1166,0.1149,0.1123,0.1147,0.1411,0.1411,0.1411,0.1411,0.058,0.0578,0.0779,0.0954,0.1184,0.1334,0.1649,0.1724,0.1493,0.1283,0.1158,0.0966,0.0954,0.0911,0.0891,0.0902,0.1098,0.1097,0.1096,0.0697,0.0744,0.0921,0.1065,0.1318,0.1562,0.1771,0.1781,0.1344,0.1059,0.0895,0.0908,0.0591,0.0587,0.0479,0.0466,0.0469,0,0]}],[{"header":{"parameterUnit":"m.s-1","parameterCategory":2,"la1":30.2992,"la2":30.254,"lo1":-89.0895,"lo2":-89.0443,"dy":0.0025,"dx":0.0025,"nx":19,"ny":19,"refTime":"2026-04-26T21:00:00:Z","depth":"2","parameterNumber":2,"parameterNumberName":"U-component_of_CURRENTS"},"data":[0,0,0,0.0901,0.0899,0.0846,0.0846,0.0847,0.0847,0,0,0,0,0,0,0,0,0,0,0,0.0919,0.0919,0.0901,0.0899,0.0846,0.0846,0.0847,0.0847,0,0,0,0,0,0,0,0,0,0,0,0.092,0.0919,0.0918,0.0899,0.0846,0.0846,0.0847,0.0871,0,0,0,0,0,0,0,0,0,0,0.0914,0.0933,0.0919,0.0918,0.0899,0.0846,0.0846,0.0871,0.0869,0.0889,0,0.0874,0,0.086,0.0848,0.0848,0,0,0,0.0904,0.0935,0.0906,0.0918,0.0898,0.0847,0.0872,0.087,0.0868,0.0887,0.0874,0.0873,0.086,0.0848,0.0848,0.0843,0.0842,0,0,0.0907,0.0927,0.0907,0.0905,0.0877,0.0873,0.087,0.0868,0.0873,0.0874,0.0873,0.086,0.0848,0.0848,0.0843,0.0843,0,0,0,0.0912,0.0929,0.0899,0.0905,0.0889,0.0872,0.0868,0.0873,0.0859,0.0873,0.086,0.0848,0.0849,0.0843,0.0843,0.096,0,0,0,0.0914,0.0931,0.0901,0.0914,0.0889,0.0875,0.0874,0.0859,0.0858,0.086,0.0848,0.0849,0.0843,0.0843,0.0958,0.1054,0,0,0,0.0923,0.0933,0.092,0.0915,0.0888,0.0874,0.086,0.0858,0.085,0.0848,0.0849,0.0843,0.0843,0.0955,0.1048,0.1203,0,0,0,0.0954,0.0939,0.0921,0.0898,0.0888,0.0835,0.0859,0.0829,0.0822,0.0848,0.0843,0.0843,0.0955,0.1044,0.1197,0.1166,0.1191,0,0,0.0951,0.0939,0.0922,0.0904,0.086,0.0843,0.084,0.0843,0.0827,0.085,0.085,0.0959,0.1047,0.1202,0.114,0.1166,0,0,0,0.093,0.0921,0.0901,0.0873,0.0829,0.0855,0.0824,0.0851,0.0891,0.0819,0.0916,0.0968,0.1063,0.1029,0.1049,0.0841,0.0841,0.0841,0.0841,0.0994,0.0945,0.0922,0.0871,0.0852,0.0856,0.0913,0.0945,0.0895,0.0933,0.1031,0.1185,0.1143,0.1159,0.0966,0.0967,0.0967,0.0968,0.0968,0.1002,0.0993,0.0954,0.0918,0.0931,0.0944,0.1023,0.1048,0.1205,0.1099,0.1185,0.1111,0.1189,0.0976,0.0975,0.0974,0.0973,0.0972,0.0972,0.1051,0.1041,0.1011,0.0994,0.1041,0.1056,0.1227,0.1287,0.1334,0.1438,0.1425,0.1421,0.134,0.1484,0.1485,0.1486,0.1487,0.1488,0.1489,0.1127,0.1088,0.1118,0.11,0.1145,0.1235,0.1387,0.1503,0.1601,0.1585,0.1584,0.1362,0.1345,0.1369,0.1505,0.1502,0.15,0.1499,0.1497,0.1182,0.12,0.1228,0.1272,0.1351,0.141,0.1549,0.1695,0.1849,0.1883,0.1679,0.1669,0.1656,0.1635,0.1664,0.1871,0.1871,0.1871,0.1871,0.1266,0.1264,0.1331,0.1405,0.1492,0.15,0.1595,0.16,0.1686,0.1658,0.1666,0.1476,0.1467,0.143,0.1414,0.1433,0.158,0.1579,0.1578,0.1332,0.1341,0.1404,0.1439,0.1526,0.154,0.1462,0.1341,0.1403,0.1557,0.1516,0.187,0.1604,0.1585,0.1531,0.1504,0.1537,0,0]},{"header":{"parameterUnit":"m.s-1","parameterCategory":2,"la1":30.2992,"la2":30.254,"lo1":-89.0895,"lo2":-89.0443,"dy":0.0025,"dx":0.0025,"nx":19,"ny":19,"refTime":"2026-04-26T21:00:00:Z","depth":"2","parameterNumber":3,"parameterNumberName":"V-component_of_CURRENTS"},"data":[0,0,0,0.0178,0.0179,0.0203,0.0203,0.0097,0.0095,0,0,0,0,0,0,0,0,0,0,0,0.0158,0.0159,0.0178,0.0179,0.0203,0.0203,0.0097,0.0095,0,0,0,0,0,0,0,0,0,0,0,0.0158,0.0159,0.0159,0.0179,0.0203,0.0203,0.0097,0.0108,0,0,0,0,0,0,0,0,0,0,0.0099,0.0097,0.0158,0.0159,0.0179,0.0203,0.0203,0.0109,0.0107,0.0053,0,0.0068,0,0.009,0.0087,0.0087,0,0,0,0.0158,0.01,0.0123,0.0159,0.018,0.0203,0.0186,0.0109,0.0106,0.0049,0.0067,0.0065,0.0089,0.0086,0.0086,0.001,0.0011,0,0,0.0156,0.0139,0.0126,0.0122,0.0198,0.0186,0.0187,0.0109,0.0096,0.0067,0.0063,0.0087,0.0086,0.0085,0.001,0.001,0,0,0,0.0167,0.0138,0.0165,0.0125,0.0147,0.0187,0.0189,0.0099,0.0114,0.0062,0.0086,0.0085,0.0083,0.001,0.001,0.011,0,0,0,0.0165,0.0146,0.0165,0.0151,0.015,0.014,0.0181,0.0119,0.0112,0.0086,0.0085,0.0082,0.001,0.001,0.0107,0.0186,0,0,0,0.0155,0.0144,0.0156,0.0151,0.0175,0.0143,0.0152,0.0119,0.0126,0.0087,0.0082,0.001,0.001,0.0104,0.0179,0.0244,0,0,0,0.0124,0.0135,0.0155,0.0165,0.0175,0.0184,0.0153,0.014,0.011,0.0084,0.001,0.001,0.0103,0.0176,0.024,0.0166,0.0179,0,0,0.0122,0.0134,0.0141,0.0161,0.0173,0.0178,0.0183,0.0135,0.0092,0.0022,0.0021,0.0108,0.0179,0.0243,0.018,0.0193,0,0,0,0.013,0.0134,0.0139,0.0153,0.0167,0.0197,0.0158,0.0155,0.013,0.0082,0.0084,0.0127,0.0164,0.0109,0.0119,0.0012,0.0012,0.0011,0.0011,0.0099,0.0119,0.0127,0.0152,0.0165,0.0193,0.0225,0.0211,0.0142,0.0157,0.0189,0.0285,0.0224,0.0232,0.0147,0.0148,0.0148,0.0148,0.0149,0.0096,0.0115,0.0133,0.0152,0.0197,0.0213,0.0275,0.0281,0.0335,0.0257,0.0288,0.0193,0.0249,0.0156,0.0155,0.0154,0.0153,0.0152,0.0152,0.0086,0.0105,0.0113,0.016,0.0229,0.0282,0.0434,0.0461,0.0434,0.0492,0.0406,0.0402,0.0379,0.0493,0.0494,0.0494,0.0495,0.0495,0.0496,0.0091,0.0102,0.015,0.0199,0.0272,0.0387,0.0561,0.0627,0.0605,0.0532,0.053,0.0402,0.0391,0.0398,0.0505,0.0504,0.0502,0.0501,0.0501,0.0115,0.0139,0.0198,0.0268,0.0434,0.0535,0.068,0.0737,0.0805,0.0737,0.0542,0.0537,0.0507,0.0494,0.0503,0.0632,0.0632,0.0632,0.0632,0.0156,0.0165,0.0285,0.0412,0.0552,0.0629,0.0757,0.0738,0.0652,0.0531,0.0535,0.0417,0.0414,0.0371,0.0361,0.0364,0.0458,0.0457,0.0457,0.0202,0.0221,0.0331,0.044,0.0612,0.0678,0.0687,0.0667,0.0518,0.0451,0.0511,0.0619,0.045,0.0444,0.0375,0.0362,0.0365,0,0]}],[{"header":{"parameterUnit":"m.s-1","parameterCategory":2,"la1":30.2992,"la2":30.254,"lo1":-89.0895,"lo2":-89.0443,"dy":0.0025,"dx":0.0025,"nx":19,"ny":19,"refTime":"2026-04-26T21:00:00:Z","depth":"4","parameterNumber":2,"parameterNumberName":"U-component_of_CURRENTS"},"data":[0,0,0,0.0551,0.0557,0.079,0.079,0.0762,0.0761,0,0,0,0,0,0,0,0,0,0,0,0.0432,0.0433,0.055,0.0557,0.079,0.079,0.0762,0.0761,0,0,0,0,0,0,0,0,0,0,0,0.0431,0.0433,0.0435,0.0559,0.079,0.079,0.0762,0.0658,0,0,0,0,0,0,0,0,0,0,0.0468,0.0436,0.0432,0.0435,0.056,0.079,0.079,0.0656,0.0664,0.0577,0,0.0628,0,0.0723,0.0756,0.0756,0,0,0,0.0516,0.043,0.0491,0.0435,0.0563,0.079,0.0673,0.0663,0.0672,0.0586,0.0629,0.0632,0.0723,0.0755,0.0755,0.0621,0.0621,0,0,0.0503,0.0465,0.0486,0.0498,0.0637,0.0666,0.0681,0.0671,0.0678,0.0629,0.0634,0.0722,0.0755,0.0754,0.0622,0.0621,0,0,0,0.0494,0.0455,0.0523,0.0494,0.058,0.0674,0.0691,0.0678,0.0702,0.0635,0.0722,0.0754,0.0753,0.0623,0.0622,0.0704,0,0,0,0.0484,0.0455,0.0517,0.0496,0.0583,0.0685,0.0697,0.0701,0.0707,0.0722,0.0754,0.0753,0.0624,0.0623,0.0704,0.0777,0,0,0,0.0418,0.0449,0.048,0.0493,0.0619,0.0689,0.0712,0.0706,0.0759,0.0756,0.0752,0.0625,0.0623,0.0704,0.0775,0.0823,0,0,0,0.0362,0.0421,0.0479,0.0546,0.0618,0.0689,0.0714,0.0749,0.0743,0.0754,0.0624,0.0622,0.0704,0.0773,0.0821,0.0677,0,0,0,0.0401,0.0425,0.0456,0.0515,0.0574,0.0653,0.0678,0.0685,0.0673,0.0599,0.0599,0.0704,0.0775,0.0822,0.0556,0,0,0,0,0.0443,0.0461,0.0486,0.0542,0.0601,0.0657,0.0677,0.0677,0.0666,0.0677,0.0639,0.068,0.0709,0.0613,0.0612,0.0612,0.0613,0.0613,0.0613,0.0391,0.0431,0.0466,0.0515,0.0564,0.0625,0.066,0.0651,0.0625,0.062,0.0698,0.0727,0.0619,0.0619,0.0619,0.062,0.062,0.062,0.062,0.0389,0.0398,0.0449,0.0523,0.0569,0.0612,0.0652,0.067,0.0718,0.0681,0.0705,0.0643,0.0627,0.0626,0.0625,0.0624,0.0623,0.0623,0.0623,0.0319,0.0337,0.0408,0.0503,0.0588,0.0666,0.0736,0.0811,0.0809,0.0859,0.0761,0.0787,0.084,0.0883,0.0883,0.0884,0.0884,0.0885,0.0885,0.023,0.0293,0.0367,0.0495,0.057,0.0697,0.0833,0.0826,0.0876,0.0852,0.0912,0.0816,0.0807,0.0853,0.0893,0.0892,0.0891,0.089,0.0889,0.0166,0.0216,0.0308,0.0389,0.0545,0.0613,0.0775,0.08,0.0818,0.0768,0.0822,0.0823,0.0794,0.0787,0.0831,0.0867,0.0866,0.0864,0,0.0097,0.0134,0.0232,0.0321,0.0403,0.0539,0.0554,0.0583,0.0651,0.0699,0.0711,0.077,0.0771,0.0729,0.072,0.0764,0,0,0,0.0046,0.0086,0.012,0.0236,0.032,0.0427,0.0551,0.0552,0.074,0.0613,0.0824,0.0834,0.0648,0.0916,0.0875,0.0865,0.0937,0,0]},{"header":{"parameterUnit":"m.s-1","parameterCategory":2,"la1":30.2992,"la2":30.254,"lo1":-89.0895,"lo2":-89.0443,"dy":0.0025,"dx":0.0025,"nx":19,"ny":19,"refTime":"2026-04-26T21:00:00:Z","depth":"4","parameterNumber":3,"parameterNumberName":"V-component_of_CURRENTS"},"data":[0,0,0,0.0136,0.0135,0.0062,0.0061,-0.01,-0.0101,0,0,0,0,0,0,0,0,0,0,0,0.015,0.015,0.0136,0.0135,0.0062,0.0061,-0.0099,-0.0101,0,0,0,0,0,0,0,0,0,0,0,0.0151,0.015,0.015,0.0135,0.0062,0.0061,-0.0099,-0.0031,0,0,0,0,0,0,0,0,0,0,0.0046,0.0072,0.015,0.015,0.0135,0.0062,0.0061,-0.0028,-0.0036,-0.008,0,-0.0087,0,-0.0087,-0.0112,-0.0112,0,0,0,0.0117,0.0079,0.0068,0.015,0.0134,0.0062,0.009,-0.0032,-0.0041,-0.0091,-0.0089,-0.0095,-0.009,-0.0113,-0.0113,-0.0204,-0.0204,0,0,0.0121,0.0124,0.0074,0.0062,0.0118,0.0092,0.0088,-0.0037,-0.0052,-0.009,-0.0098,-0.0092,-0.0114,-0.0115,-0.0204,-0.0204,0,0,0,0.0145,0.0127,0.012,0.0068,0.0066,0.0091,0.0085,-0.0047,-0.0046,-0.0099,-0.0094,-0.0115,-0.0117,-0.0204,-0.0204,-0.0167,0,0,0,0.0146,0.0143,0.0122,0.0121,0.0069,0.0018,0.0078,-0.0038,-0.0051,-0.0093,-0.0115,-0.0118,-0.0204,-0.0204,-0.0169,-0.0154,0,0,0,0.0153,0.0143,0.0138,0.0122,0.0101,0.0021,0.0013,-0.0041,-0.0048,-0.0112,-0.0119,-0.0205,-0.0204,-0.017,-0.0156,-0.0207,0,0,0,0.0154,0.0125,0.0138,0.0108,0.0102,0.0054,0.0013,-0.0036,-0.0087,-0.0115,-0.0204,-0.0204,-0.017,-0.0158,-0.0207,-0.0156,0,0,0,0.0117,0.012,0.0105,0.0115,0.0083,0.0063,0.001,-0.0068,-0.0094,-0.0173,-0.0174,-0.0168,-0.0156,-0.0207,-0.0128,0,0,0,0,0.0093,0.0087,0.0076,0.0066,0.0041,0.0018,-0.0043,-0.0074,-0.012,-0.0118,-0.0169,-0.0163,-0.0196,-0.0166,-0.0202,-0.0202,-0.0202,-0.0202,-0.0202,0.0034,0.0048,0.0027,0.0036,0.0017,-0.0024,-0.006,-0.0105,-0.013,-0.0129,-0.0133,-0.0145,-0.0108,-0.0134,-0.0133,-0.0133,-0.0133,-0.0133,-0.0133,-0.0002,-0.0015,0.0018,0.0004,-0.0001,-0.003,-0.0072,-0.0086,-0.0136,-0.012,-0.0155,-0.0127,-0.0129,-0.013,-0.013,-0.0131,-0.0131,-0.0131,-0.0132,-0.0038,-0.0045,-0.0033,-0.0033,-0.0026,-0.0027,-0.0041,-0.0053,-0.0099,-0.0113,-0.0114,-0.0143,-0.015,-0.0128,-0.0128,-0.0128,-0.0129,-0.0129,-0.0129,-0.0099,-0.0083,-0.0097,-0.0078,-0.0068,-0.0031,-0.0022,-0.0049,-0.0073,-0.0074,-0.0099,-0.0144,-0.0145,-0.0151,-0.0131,-0.013,-0.013,-0.013,-0.013,-0.0144,-0.016,-0.0158,-0.0158,-0.0112,-0.0058,-0.0052,-0.0041,-0.0092,-0.0122,-0.0089,-0.009,-0.0114,-0.0116,-0.0122,-0.0093,-0.0092,-0.0092,0,-0.0197,-0.0198,-0.0183,-0.0156,-0.0113,-0.0058,-0.0046,-0.0051,-0.0079,-0.0045,-0.0132,-0.0093,-0.0094,-0.012,-0.0121,-0.0127,0,0,0,-0.0217,-0.0203,-0.0169,-0.013,-0.0074,-0.0014,-0.0011,-0.0005,-0.0056,-0.0083,-0.0074,-0.0079,-0.0146,-0.0137,-0.0179,-0.0179,-0.0193,0,0]}]]